EW8061 Weather Reports


Display with metric or nautical units.
time (UTC)temp
F
wind
direction
speed
MPH
gust
MPH
rain 1hr
in
rain 24hr
in
rain mn
in
humidity
%
barometer
mb
20260507033027 48 275 0.0 1.0 0.00 0.00 0.00 93 1012.1
20260507031526 49 275 0.0 2.0 0.00 0.00 0.00 93 1012.0
20260507030025 48 275 0.0 2.0 0.00 0.00 0.00 93 1012.0
20260507024528 48 275 0.0 2.0 0.00 0.00 0.00 93 1012.0
20260507023023 48 275 0.0 1.0 0.00 0.00 0.00 93 1011.9
20260507021524 49 275 0.0 3.0 0.00 0.00 0.00 93 1011.8
20260507020022 49 275 0.0 4.0 0.00 0.00 0.00 93 1011.7
20260507014519 49 275 0.0 0.0 0.00 0.00 0.00 93 1011.6
20260507013017 49 275 0.0 1.0 0.00 0.00 0.00 92 1011.5
20260507011514 0 0.0 0.0 0.00 0.00 0.00 1011.5
20260507010011 49 275 0.0 2.0 0.00 0.00 0.00 92 1011.4
20260507004510 49 275 0.0 3.0 0.00 0.00 0.00 92 1011.3
20260507003010 49 275 0.0 3.0 0.00 0.00 0.00 92 1011.3
20260507001513 49 275 0.0 3.0 0.00 0.00 0.00 92 1011.3
20260507000007 49 275 0.0 0.0 0.00 0.00 0.00 92 1011.2
20260506234507 49 275 0.0 1.0 0.00 0.00 0.00 92 1011.2
20260506233004 49 275 0.0 2.0 0.00 0.00 0.00 92 1011.2
20260506231502 49 275 0.0 0.0 0.00 0.00 0.00 92 1011.2
20260506230001 49 275 0.0 3.0 0.00 0.00 0.00 92 1011.1
20260506224600 49 275 0.0 6.0 0.00 0.00 0.00 92 1011.0
20260506223057 49 279 2.0 7.0 0.00 0.00 0.00 92 1010.9
20260506221556 49 292 1.0 4.0 0.00 0.00 0.00 92 1010.9
20260506220054 49 292 0.0 3.0 0.00 0.00 0.00 92 1010.8
20260506214552 49 294 0.0 5.0 0.00 0.00 0.00 92 1010.7
20260506213050 49 294 0.0 4.0 0.00 0.00 0.00 92 1010.6
20260506211550 49 294 0.0 3.0 0.00 0.00 0.00 92 1010.5
20260506210051 49 294 0.0 3.0 0.00 0.00 0.00 92 1010.5
20260506204548 49 294 0.0 2.0 0.00 0.00 0.00 92 1010.5
20260506203051 49 294 0.0 2.0 0.00 0.00 0.00 92 1010.4
20260506201606 49 294 0.0 2.0 0.00 0.00 0.00 92 1010.3
20260506200044 49 294 0.0 0.0 0.00 0.00 0.00 92 1010.1
20260506194550 49 294 0.0 0.0 0.00 0.00 0.00 92 1009.9
20260506193044 49 294 0.0 0.0 0.00 0.00 0.00 92 1009.6
20260506191542 50 294 0.0 2.0 0.00 0.00 0.00 92 1009.5
20260506190037 49 294 0.0 3.0 0.00 0.00 0.00 92 1009.4
20260506184546 49 294 0.0 2.0 0.00 0.00 0.00 92 1009.3
20260506183039 50 294 0.0 7.0 0.00 0.00 0.00 92 1009.1
20260506181532 50 292 1.0 5.0 0.00 0.00 0.00 92 1008.9
20260506180032 50 293 0.0 5.0 0.00 0.00 0.00 92 1008.8
20260506174530 50 292 1.0 5.0 0.00 0.00 0.00 91 1008.7
20260506173028 50 293 0.0 3.0 0.00 0.00 0.00 91 1008.5
20260506171535 50 293 1.0 8.0 0.00 0.00 0.00 91 1008.4
20260506170024 50 288 3.0 12.0 0.00 0.00 0.00 91 1008.2
20260506164525 50 284 3.0 8.0 0.00 0.00 0.00 91 1008.2
20260506163037 50 284 3.0 9.0 0.00 0.00 0.00 91 1008.1
20260506161522 50 298 2.0 7.0 0.00 0.00 0.00 90 1008.1
20260506160023 50 292 3.0 11.0 0.00 0.00 0.00 90 1008.0
20260506154524 50 281 1.0 10.0 0.00 0.00 0.00 91 1007.9
20260506153016 50 290 1.0 9.0 0.00 0.00 0.00 91 1007.8
20260506151515 50 284 2.0 7.0 0.00 0.00 0.00 91 1007.7
20260506150015 50 285 3.0 9.0 0.00 0.00 0.00 91 1007.6
20260506144516 50 302 5.0 12.0 0.00 0.00 0.00 91 1007.7
20260506143016 50 307 5.0 12.0 0.00 0.00 0.00 91 1007.5
20260506141510 50 303 5.0 13.0 0.00 0.00 0.00 91 1007.5
20260506140008 50 281 6.0 11.0 0.00 0.00 0.00 91 1007.4
20260506134507 51 306 7.0 12.0 0.00 0.00 0.00 91 1007.4
20260506133006 51 294 6.0 11.0 0.00 0.00 0.00 91 1007.3
20260506131503 51 304 7.0 12.0 0.00 0.00 0.00 91 1007.2
20260506130106 52 284 2.0 9.0 0.00 0.00 0.00 91 1007.2
20260506124600 52 282 3.0 11.0 0.00 0.00 0.00 90 1007.1
20260506123055 53 279 6.0 12.0 0.00 0.00 0.00 89 1006.8
20260506121603 53 294 5.0 10.0 0.00 0.00 0.00 91 1006.7
20260506120108 53 303 6.0 10.0 0.00 0.00 0.00 90 1006.6
20260506114608 53 294 1.0 10.0 0.00 0.00 0.00 90 1006.6
20260506113052 53 288 4.0 10.0 0.00 0.00 0.00 91 1006.5
20260506111553 53 291 1.0 8.0 0.00 0.00 0.00 92 1006.4
20260506110049 53 284 3.0 10.0 0.00 0.00 0.00 91 1006.4
20260506104548 54 296 4.0 8.0 0.00 0.00 0.00 90 1006.3
20260506103048 54 288 2.0 10.0 0.00 0.00 0.00 88 1006.3
20260506101547 55 314 3.0 9.0 0.00 0.00 0.00 86 1005.9
20260506100049 55 295 1.0 7.0 0.00 0.00 0.00 85 1005.7
20260506094547 55 290 1.0 7.0 0.00 0.01 0.00 87 1005.7
20260506093105 55 288 2.0 9.0 0.00 0.01 0.00 83 1005.7
20260506091547 56 297 4.0 10.0 0.00 0.01 0.00 82 1005.5
20260506090046 56 313 5.0 12.0 0.00 0.01 0.00 80 1005.4
20260506084543 56 277 3.0 8.0 0.00 0.01 0.00 79 1005.2
20260506083043 56 274 1.0 9.0 0.00 0.01 0.00 79 1005.1
20260506081538 56 288 1.0 7.0 0.00 0.01 0.00 80 1005.1
20260506073033 55 192 0.0 7.0 0.00 0.01 0.00 82 1005.3
20260506071529 54 185 5.0 11.0 0.00 0.01 0.00 83 1005.1
20260506061519 52 153 0.0 3.0 0.00 0.01 0.00 90 1005.1
20260506044505 51 153 0.0 0.0 0.00 0.02 0.00 90 1005.2
20260506043004 51 153 0.0 0.0 0.00 0.02 0.00 90 1005.1
20260506041504 51 153 0.0 0.0 0.00 0.02 0.00 90 1005.0
20260506040003 51 153 0.0 2.0 0.00 0.02 0.00 90 1005.0
20260506034504 51 153 0.0 3.0 0.00 0.02 0.00 90 1004.9